Weather History for KCAE - February, 2013

Change the Weather History Date:

Friday, February 22, 2013

  Actual Average Record
Temperature  
Mean Temperature 46 °F 50 °F  
Max Temperature 52 °F 62 °F 81 °F (2011)
Min Temperature 40 °F 38 °F 16 °F (1896)
Degree Days  
Heating Degree Days 19 15  
Month to date heating degree days 378 378  
Since 1 July heating degree days 1623 2014  
Cooling Degree Days 0 0  
Month to date cooling degree days 0 0  
Year to date cooling degree days 25 1  
Moisture  
Dew Point 36 °F    
Average Humidity 66    
Maximum Humidity 93    
Minimum Humidity 38    
Precipitation  
Precipitation 0.22 in 0.13 in 3.69 in (1962)
Month to date precipitation 3.47 2.81  
Year to date precipitation 4.68 6.39  
Sea Level Pressure  
Sea Level Pressure 30.17 in    
Wind  
Wind Speed 8 mph (NE)    
Max Wind Speed 16 mph    
Max Gust Speed 22 mph    
Visibility 5 miles    
Events Rain    
T = Trace of Precipitation, MM = Missing Value Source: NWS Daily Summary

Daily Weather History Graph

Daily Weather History Graph

Search for Another Location

Airport or City:

Trip Planner

Search our weather history database for the weather conditions in past years. The results will help you decide how hot, cold, wet, or windy it might be!

Date:

Astronomy

Feb. 22, 2013 Rise Set
Actual Time 7:01 AM EST 6:15 PM EST
Civil Twilight 6:35 AM EST 6:40 PM EST
Nautical Twilight 6:06 AM EST 7:09 PM EST
Astronomical Twilight 5:37 AM EST 7:38 PM EST
Moon 3:30 PM EST (2/22) 4:39 AM EST (2/22)
Length of Visible Light 12h 04m
Length of Day
11h 13m
Waxing Gibbous, 90% of the Moon is Illuminated
Feb 22
Waxing Gibbous
Feb 25
Full
Mar 4
Last Quarter
Mar 11
New
Mar 19
First Quarter

Hourly Weather History & Observations

Time (EST) Temp. Windchill Dew Point Humidity Pressure Visibility Wind Dir Wind Speed Gust Speed Precip Events Conditions
12:56 AM 52.0 °F - 30.0 °F 43% 30.17 in 10.0 mi ENE 6.9 mph - N/A   Mostly Cloudy
1:56 AM 51.1 °F - 32.0 °F 48% 30.19 in 10.0 mi ENE 5.8 mph - N/A   Mostly Cloudy
2:56 AM 52.0 °F - 30.0 °F 43% 30.22 in 10.0 mi NE 8.1 mph - N/A   Overcast
3:56 AM 51.1 °F - 27.0 °F 39% 30.21 in 10.0 mi ENE 10.4 mph - N/A   Overcast
4:56 AM 50.0 °F - 26.1 °F 39% 30.20 in 10.0 mi ENE 10.4 mph 21.9 mph N/A   Overcast
5:56 AM 48.9 °F - 27.0 °F 43% 30.19 in 10.0 mi ENE 12.7 mph - 0.00 in Rain Light Rain
6:56 AM 44.1 °F 39.0 °F 35.1 °F 71% 30.19 in 7.0 mi ENE 9.2 mph - 0.06 in Rain Light Rain
7:56 AM 42.1 °F 38.4 °F 35.1 °F 76% 30.22 in 6.0 mi ENE 5.8 mph - 0.05 in Rain Light Rain
8:14 AM 42.8 °F 41.1 °F 35.6 °F 76% 30.25 in 4.0 mi NNE 3.5 mph - 0.02 in Rain Light Rain
8:56 AM 41.0 °F 33.1 °F 37.0 °F 86% 30.20 in 6.0 mi East 15.0 mph - 0.05 in Rain Light Rain
9:15 AM 41.0 °F 34.7 °F 37.4 °F 87% 30.19 in 10.0 mi East 10.4 mph - 0.00 in   Overcast
9:56 AM 42.1 °F 36.6 °F 36.0 °F 79% 30.21 in 10.0 mi ENE 9.2 mph - 0.00 in   Overcast
10:56 AM 43.0 °F 38.8 °F 37.0 °F 80% 30.21 in 10.0 mi NE 6.9 mph - N/A   Overcast
11:56 AM 42.1 °F 37.7 °F 36.0 °F 79% 30.22 in 6.0 mi NE 6.9 mph - 0.00 in Rain Light Rain
12:56 PM 41.0 °F 37.1 °F 37.0 °F 86% 30.18 in 3.0 mi NNE 5.8 mph - 0.03 in Rain Light Rain
1:21 PM 41.0 °F 36.4 °F 37.4 °F 87% 30.16 in 2.0 mi NE 6.9 mph - 0.00 in Rain Light Rain
1:30 PM 41.0 °F 36.4 °F 37.4 °F 87% 30.16 in 2.0 mi NE 6.9 mph - 0.00 in Rain Light Rain
1:56 PM 41.0 °F 35.8 °F 37.0 °F 86% 30.16 in 2.0 mi ENE 8.1 mph - 0.00 in   Overcast
2:56 PM 41.0 °F 36.4 °F 37.9 °F 89% 30.15 in 2.0 mi NE 6.9 mph - 0.02 in Rain Light Rain
3:28 PM 42.8 °F 39.3 °F 37.4 °F 81% 30.16 in 2.0 mi NNE 5.8 mph - 0.00 in   Overcast
3:56 PM 42.1 °F 37.7 °F 37.9 °F 85% 30.16 in 2.0 mi NNE 6.9 mph - 0.00 in   Overcast
4:36 PM 41.0 °F 37.1 °F 37.4 °F 87% 30.14 in 1.5 mi NE 5.8 mph - 0.00 in   Overcast
4:56 PM 41.0 °F 36.4 °F 37.9 °F 89% 30.14 in 1.5 mi NE 6.9 mph - 0.00 in Rain Light Rain
5:56 PM 42.1 °F 37.1 °F 37.9 °F 85% 30.14 in 4.0 mi NNE 8.1 mph - 0.01 in   Overcast
6:37 PM 41.0 °F 35.2 °F 37.4 °F 87% 30.13 in 2.5 mi NE 9.2 mph - N/A   Overcast
6:56 PM 41.0 °F 36.4 °F 37.9 °F 89% 30.14 in 2.5 mi NE 6.9 mph - N/A   Overcast
7:56 PM 41.0 °F 36.4 °F 39.0 °F 93% 30.14 in 2.5 mi NE 6.9 mph - N/A   Overcast
8:56 PM 41.0 °F 36.4 °F 39.0 °F 93% 30.14 in 2.0 mi NNE 6.9 mph - N/A   Overcast
9:56 PM 41.0 °F 37.1 °F 39.0 °F 93% 30.14 in 1.8 mi North 5.8 mph - N/A   Overcast
10:56 PM 39.9 °F 35.1 °F 37.9 °F 93% 30.13 in 2.0 mi NE 6.9 mph - N/A   Overcast
11:56 PM 39.9 °F 35.1 °F 37.9 °F 93% 30.09 in 2.0 mi NE 6.9 mph - N/A   Overcast